Terug naar catalogus

COSMOS 823

ActiefMilitairPO
NORAD 8873·PAYLOAD·🇷🇺 Russia

Gelanceerd Jun 2, 1976 vanaf Plesetsk Cosmodrome

Loading…

Volgende Passages (komende 24 uur)

TLE

VersSource: Space-Track

Epoch: Sep 14, 2026, 11:20 UTC

1 08873U 76051A   26257.47237314  .00000021  00000-0  60730-5 0  9992
2 08873  82.9624  70.5738 0021749 330.3581  58.5008 13.73544615519409

Volg COSMOS 823 in realtime met AllMySat

Download on the App Store